User: anonymous   Login
Location: Unspecified
(0.0000°N, 0.0000°E)
Time: 15:05:55
(UTC+00:00)
Language:

SICRAL 1 - Orbit

View from above orbital plane
View from above orbital plane
View from above satellite
View from above satellite

Ground track
Ground track

The orbit data is extracted from the following two-line orbital elements,

1 26694U 01005A   18140.42650100 0.00000000  00000-0  00000-0 0    08
2 26694   7.8223  47.9942 0009293 268.5622  91.3380  1.00270000    04
Epoch (UTC): 20 May 2018 10:14:09
Eccentricity: 0.0009293
inclination: 7.8223°
perigee height: 35747 km
apogee height: 35826 km
right ascension of ascending node: 47.9942°
argument of perigee: 268.5622°
revolutions per day: 1.00270000
mean anomaly at epoch: 91.3380°
orbit number at epoch: 0

The dashed part of the orbit path shows where the satellite is in the earth's shadow,  

DLR